,Lone Pine,Lone Pine,Lone Pine Met,Lone Pine Met,Lone Pine Met,Lone Pine Met,Lone Pine Met,Lone Pine Met,Lone Pine Met,Lone Pine Met,Lone Pine Met,Lone Pine Met,Lone Pine Met,Lone Pine Met,Lone Pine Met,Lone Pine Met
,PM10_1HR,PM10_1HR,m_ASPD,m_ASPD,m_DIR,m_DIR,m_MXASPD,m_MXASPD,m_MXTIME,m_MXTIME,m_OUTTEMP,m_OUTTEMP,m_STD,m_STD,m_VSPD,m_VSPD
,UG/M3,UG/M3,M/SEC,M/SEC,DEG,DEG,M/SEC,M/SEC,None,None,DEGC,DEGC,DEG,DEG,M/SEC,M/SEC
Date,Value,Null Code,Value,Null Code,Value,Null Code,Value,Null Code,Value,Null Code,Value,Null Code,Value,Null Code,Value,Null Code
9/1/2020 0:00,48,,3.08,,344.9,,5.195,,13,,22.46,,13.74,,2.992,
9/1/2020 1:00,46.9,,1.874,,355.4,,3.921,,105,,21.71,,39.41,,1.431,
9/1/2020 2:00,44.9,,2.127,,342.2,,3.872,,237,,20.99,,31.4,,1.808,
9/1/2020 3:00,41.2,,2.489,,324.8,,3.921,,334,,19.31,,23.9,,2.273,
9/1/2020 4:00,39.9,,1.88,,342.1,,3.529,,459,,18.21,,15.54,,1.811,
9/1/2020 5:00,42.5,,2.745,,349.2,,4.313,,543,,17.65,,22.84,,2.527,
9/1/2020 6:00,37.3,,4.146,,345.8,,7.06,,640,,21.57,,11.69,,4.059,
9/1/2020 7:00,34.7,,5.544,,337.3,,9.51,,759,,24.2,,11.07,,5.44,
9/1/2020 8:00,38.2,,6.607,,335.3,,11.86,,859,,26.11,,12.34,,6.454,
9/1/2020 9:00,34.8,,6.798,,333.9,,10.93,,916,,28.05,,13.27,,6.616,
9/1/2020 10:00,20.6,,3.966,,322.4,,7.2,,1021,,29.81,,17.89,,3.772,
9/1/2020 11:00,18.7,,1.79,,327.5,,5.489,,1113,,31.32,,57.69,,0.882,
9/1/2020 12:00,25.3,,1.805,,172.9,,4.411,,1237,,32.27,,49.69,,1.126,
9/1/2020 13:00,25,,1.503,,134.7,,3.627,,1322,,33.39,,50.23,,0.925,
9/1/2020 14:00,26.8,,1.795,,158.9,,6.126,,1454,,33.82,,33.76,,1.483,
9/1/2020 15:00,27.7,,2.387,,146.5,,6.518,,1505,,33.8,,29.75,,2.065,
9/1/2020 16:00,32.2,,2.221,,184.1,,4.754,,1606,,33.66,,17.92,,2.112,
9/1/2020 17:00,35.8,,1.895,,183.3,,3.627,,1749,,32.21,,13.97,,1.838,
9/1/2020 18:00,36.7,,2.854,,166.1,,4.166,,1807,,29,,20.13,,2.678,
9/1/2020 19:00,55.9,,2.962,,166.1,,5.734,,1914,,27.96,,18.65,,2.805,
9/1/2020 20:00,44.8,,2.105,,187.7,,3.137,,2013,,27.17,,8.78,,2.08,
9/1/2020 21:00,35.5,,1.933,,223.7,,2.99,,2127,,27.14,,16.45,,1.853,
9/1/2020 22:00,32.5,,1.931,,244.3,,2.647,,2231,,25.03,,40.3,,1.453,
9/1/2020 23:00,30.5,,2.938,,315.2,,4.852,,2347,,19.45,,8.3,,2.907,
9/2/2020 0:00,27.8,,1.873,,330.1,,3.627,,5,,18.19,,13.17,,1.823,
9/2/2020 1:00,26.1,,1.873,,322.8,,3.039,,158,,19.18,,15.87,,1.801,
9/2/2020 2:00,19,,1.856,,327.1,,3.137,,254,,18.79,,17.33,,1.771,
9/2/2020 3:00,13.4,,2.573,,1.4,,4.558,,352,,18.82,,18.54,,2.438,
9/2/2020 4:00,15.1,,1.997,,324.6,,2.99,,402,,17.82,,31.76,,1.69,
9/2/2020 5:00,17.6,,1.699,,289.5,,3.137,,548,,17.43,,24.18,,1.548,
9/2/2020 6:00,16.9,,0.94,,275.6,,2.5,,601,,18.84,,14.24,,0.911,
9/2/2020 7:00,14.9,,1.037,,337.3,,2.206,,747,,21.92,,38.74,,0.8,
9/2/2020 8:00,14.1,,1.342,,13.2,,3.333,,818,,25.55,,27.31,,1.19,
9/2/2020 9:00,16.6,,1.257,,53.5,,3.186,,938,,28.61,,59.81,,0.571,
9/2/2020 10:00,,BE,1.217,,156,,3.039,,1020,,30.7,,37.89,,0.951,
9/2/2020 11:00,,BE,1.845,,134.5,,4.46,,1141,,32.45,,31.49,,1.566,
9/2/2020 12:00,11.3,,2.754,,157.7,,6.371,,1255,,33.92,,23.22,,2.528,
9/2/2020 13:00,73.8,,3.433,,156.2,,6.91,,1329,,34.8,,24.55,,3.117,
9/2/2020 14:00,12.6,,3.92,,148.3,,7.06,,1455,,35.44,,20.83,,3.661,
9/2/2020 15:00,13.8,,4.011,,149.9,,7.6,,1525,,35.79,,15.94,,3.856,
9/2/2020 16:00,12.5,,3.753,,166.5,,7.3,,1607,,35.93,,15.74,,3.611,
9/2/2020 17:00,19.8,,4.298,,168.4,,7.11,,1738,,34.49,,7.73,,4.259,
9/2/2020 18:00,26.1,,2.5,,147.1,,4.264,,1844,,30.95,,18.75,,2.366,
9/2/2020 19:00,33.2,,2.286,,152.4,,3.627,,1930,,29.62,,19.89,,2.148,
9/2/2020 20:00,24.2,,2.253,,203.6,,2.892,,2019,,28.55,,10.97,,2.211,
9/2/2020 21:00,27.9,,1.135,,202.6,,2.696,,2101,,27.71,,24.7,,1.029,
9/2/2020 22:00,37.2,,1.013,,311.2,,3.333,,2254,,24.71,,43.37,,0.722,
9/2/2020 23:00,40.7,,1.903,,320.7,,2.941,,2312,,23.34,,24.12,,1.734,
9/3/2020 0:00,48,,1.901,,328.7,,2.843,,39,,20.98,,11.72,,1.861,
9/3/2020 1:00,31.9,,2.808,,328.1,,5.489,,143,,18.37,,14.23,,2.722,
9/3/2020 2:00,23.3,,1.991,,307,,2.941,,218,,17.85,,13.21,,1.938,
9/3/2020 3:00,20.5,,2.021,,290.5,,2.794,,333,,19.42,,9.7,,1.992,
9/3/2020 4:00,19.7,,2.522,,313.9,,4.117,,449,,19.59,,11.21,,2.473,
9/3/2020 5:00,19.2,,2.183,,318.9,,3.382,,501,,18.8,,10.64,,2.145,
9/3/2020 6:00,20.6,,1.665,,335.8,,2.696,,656,,19.47,,16.62,,1.595,
9/3/2020 7:00,15.2,,1.505,,311.8,,2.598,,709,,22.01,,29.73,,1.302,
9/3/2020 8:00,28.7,,2.155,,299.2,,3.725,,847,,25.44,,13.59,,2.095,
9/3/2020 9:00,21.6,,2.171,,340.2,,4.754,,951,,30.1,,34.76,,1.771,
9/3/2020 10:00,11.2,,2.181,,13.4,,5.391,,1030,,32.82,,52.46,,1.266,
9/3/2020 11:00,11,,1.797,,123,,4.166,,1114,,34.55,,28.57,,1.573,
9/3/2020 12:00,15.2,,1.086,,165.8,,2.99,,1209,,36.67,,48.14,,0.703,
9/3/2020 13:00,26.3,,1.855,,162.7,,4.607,,1355,,37.64,,41.07,,1.378,
9/3/2020 14:00,11.7,,3.013,,169.5,,6.175,,1416,,37.91,,24.86,,2.729,
9/3/2020 15:00,27.8,,3.044,,164.9,,5.685,,1535,,37.96,,27.24,,2.7,
9/3/2020 16:00,13.4,,3.222,,184.9,,5.881,,1612,,37.66,,17.74,,3.068,
9/3/2020 17:00,25.2,,2.368,,187.2,,4.019,,1700,,35.5,,11.04,,2.324,
9/3/2020 18:00,34.1,,2.091,,142.2,,3.039,,1809,,32.42,,16.48,,2.005,
9/3/2020 19:00,30.2,,2.368,,194,,3.872,,1939,,30.69,,14.71,,2.29,
9/3/2020 20:00,31.8,,2.859,,211.7,,4.019,,2029,,30.86,,7.11,,2.837,
9/3/2020 21:00,17,,2.704,,212.6,,3.774,,2100,,29.91,,6.07,,2.689,
9/3/2020 22:00,16.4,,2.085,,142.3,,3.627,,2218,,26.38,,24.5,,1.894,
9/3/2020 23:00,13.6,,1.85,,305.6,,3.529,,2319,,24.02,,34.95,,1.506,
9/4/2020 0:00,14.5,,1.151,,288,,2.451,,0,,24.66,,22.53,,1.062,
9/4/2020 1:00,13.9,,2.251,,321.4,,5.636,,145,,21.48,,24.44,,2.046,
9/4/2020 2:00,11.8,,2.194,,326,,4.411,,200,,18.6,,10.44,,2.157,
9/4/2020 3:00,11.7,,2.507,,300.7,,3.333,,341,,19.84,,6.44,,2.491,
9/4/2020 4:00,14,,2.105,,308.4,,3.186,,408,,19.2,,7.96,,2.085,
9/4/2020 5:00,15,,2.739,,291,,3.627,,539,,18.76,,7.02,,2.718,
9/4/2020 6:00,20.2,,2.086,,315,,2.99,,600,,19.9,,13.09,,2.031,
9/4/2020 7:00,39.9,,1.565,,356.8,,4.509,,718,,24.09,,21.98,,1.45,
9/4/2020 8:00,22.3,,0.743,,145.6,,1.667,,832,,27.76,,47.19,,0.491,
9/4/2020 9:00,14,,0.597,,150,,2.01,,957,,31.28,,41.19,,0.443,
9/4/2020 10:00,16.8,,1.047,,148.7,,2.353,,1016,,33.73,,25.22,,0.946,
9/4/2020 11:00,8.9,,1.327,,138,,3.823,,1148,,36.26,,29.05,,1.156,
9/4/2020 12:00,11.1,,3.432,,142,,8.82,,1224,,37.16,,25.81,,3.083,
9/4/2020 13:00,8.4,,3.72,,163.5,,7.11,,1342,,38.02,,20.18,,3.489,
9/4/2020 14:00,12.4,,5.122,,158.3,,8.87,,1430,,38.24,,18.9,,4.844,
9/4/2020 15:00,15.8,,4.96,,170.8,,9.51,,1510,,38.4,,20.43,,4.645,
9/4/2020 16:00,16.4,,4.04,,182.5,,6.861,,1647,,38.1,,13.17,,3.933,
9/4/2020 17:00,22.7,,3.613,,183.9,,6.371,,1709,,36.15,,8.33,,3.575,
9/4/2020 18:00,29,,2.268,,145.9,,3.48,,1833,,32.88,,16.88,,2.169,
9/4/2020 19:00,25.4,,2.896,,158.4,,5.244,,1930,,31.78,,31.39,,2.461,
9/4/2020 20:00,20.9,,3.054,,215.7,,4.117,,2009,,31.01,,6.38,,3.035,
9/4/2020 21:00,16.7,,1.239,,221.6,,3.431,,2103,,29.19,,23.23,,1.137,
9/4/2020 22:00,14.5,,0.985,,112.9,,2.255,,2221,,27.95,,27.9,,0.868,
9/4/2020 23:00,20.5,,1.255,,300.3,,2.353,,2306,,25.43,,29.83,,1.085,
9/5/2020 0:00,20.1,,1.495,,244.7,,2.255,,43,,25.71,,31.8,,1.264,
9/5/2020 1:00,16.2,,1.651,,338.2,,5.048,,157,,21.36,,32.34,,1.388,
9/5/2020 2:00,12.6,,3.249,,327.6,,5.783,,202,,18.98,,9.29,,3.206,
9/5/2020 3:00,14.2,,2.53,,312.2,,3.48,,327,,18.05,,20.05,,2.375,
9/5/2020 4:00,14.1,,2.363,,297.7,,3.823,,451,,19.35,,13.63,,2.296,
9/5/2020 5:00,17.9,,3.145,,311.1,,4.607,,514,,19.59,,14.7,,3.042,
9/5/2020 6:00,19.7,,2.385,,312,,4.509,,631,,19.78,,26.12,,2.137,
9/5/2020 7:00,15.3,,2.048,,317.4,,3.676,,727,,22.84,,18.78,,1.938,
9/5/2020 8:00,15.8,,1.491,,353.1,,4.019,,838,,27.34,,28.62,,1.305,
9/5/2020 9:00,17.5,,1.427,,349.1,,3.284,,909,,31.19,,31.83,,1.207,
9/5/2020 10:00,10.3,,1.343,,157.1,,4.705,,1059,,34.2,,35.55,,1.084,
9/5/2020 11:00,13.9,,4.299,,131.9,,7.74,,1146,,35.72,,15.6,,4.139,
9/5/2020 12:00,12.4,,5.192,,134.5,,9.6,,1206,,36.6,,18.78,,4.913,
9/5/2020 13:00,12,,4.323,,151,,7.99,,1310,,37.15,,22.43,,3.991,
9/5/2020 14:00,12.2,,3.673,,147.7,,9.75,,1436,,37.67,,22.38,,3.393,
9/5/2020 15:00,15.4,,4.151,,136.4,,7.06,,1553,,37.79,,23.13,,3.813,
9/5/2020 16:00,17.3,,3.761,,150.1,,6.567,,1607,,37.41,,16.94,,3.596,
9/5/2020 17:00,19,,2.706,,167.8,,5.636,,1700,,35.39,,19.03,,2.557,
9/5/2020 18:00,24,,3.091,,155.4,,5.587,,1807,,33.26,,21.41,,2.875,
9/5/2020 19:00,59,,3.511,,155.6,,6.812,,1918,,31.81,,29.16,,3.056,
9/5/2020 20:00,113.2,,2.95,,213.5,,5.538,,2036,,31.68,,19.27,,2.783,
9/5/2020 21:00,124,,2.699,,222.3,,4.509,,2117,,31.32,,21.67,,2.506,
9/5/2020 22:00,66.2,,2.42,,315.7,,3.284,,2209,,27.27,,19.36,,2.282,
9/5/2020 23:00,66,,2.22,,332.4,,4.607,,2310,,24.77,,18.63,,2.103,
9/6/2020 0:00,44.1,,2.105,,330.5,,3.284,,59,,24.26,,10.89,,2.067,
9/6/2020 1:00,65.6,,2.999,,315.5,,4.264,,136,,23.49,,7.38,,2.974,
9/6/2020 2:00,80.4,,2.586,,305.5,,4.166,,247,,22.65,,9.18,,2.553,
9/6/2020 3:00,86.2,,3.208,,315.8,,4.901,,350,,20.49,,10.72,,3.152,
9/6/2020 4:00,103.8,,3.565,,336,,5.881,,429,,21.34,,12.06,,3.486,
9/6/2020 5:00,122.5,,3.582,,334.7,,6.763,,532,,21.26,,18.18,,3.402,
9/6/2020 6:00,144.5,,3.325,,351.7,,5.342,,643,,21.64,,12.38,,3.247,
9/6/2020 7:00,164.1,,2.311,,351.5,,4.607,,700,,23.83,,26.33,,2.067,
9/6/2020 8:00,191.8,,3.188,,355.7,,7.69,,854,,27.94,,14.9,,3.08,
9/6/2020 9:00,259.2,,5.285,,354.9,,8.09,,950,,30.94,,12.45,,5.16,
9/6/2020 10:00,288.5,,4.897,,351.6,,8.43,,1004,,32.53,,14.9,,4.732,
9/6/2020 11:00,261.3,,4.226,,350.9,,7.3,,1150,,34.48,,16.8,,4.045,
9/6/2020 12:00,215.6,,3.677,,339.4,,6.42,,1212,,35.98,,13.55,,3.574,
9/6/2020 13:00,151.9,,1.725,,66.6,,4.166,,1300,,37.49,,51.79,,1.02,
9/6/2020 14:00,128.4,,1.269,,155.9,,2.255,,1440,,38.05,,27.52,,1.123,
9/6/2020 15:00,112.7,,1.179,,212.6,,2.108,,1543,,38.03,,16.87,,1.128,
9/6/2020 16:00,117.2,,1.661,,261.8,,4.264,,1649,,36.52,,40.78,,1.24,
9/6/2020 17:00,63.6,,4.138,,321.6,,7.25,,1756,,34.41,,10.29,,4.071,
9/6/2020 18:00,88.9,,6.049,,317.4,,10.63,,1859,,34.54,,10.5,,5.947,
9/6/2020 19:00,85.4,,7.78,,307.7,,12.74,,1926,,34.24,,10.86,,7.64,
9/6/2020 20:00,70.2,,5.475,,333,,12.5,,2002,,31.78,,19.2,,5.167,
9/6/2020 21:00,49.5,,3.401,,343.1,,7.5,,2140,,29.66,,20.46,,3.184,
9/6/2020 22:00,49.9,,3.316,,347.9,,6.028,,2246,,27.95,,17.74,,3.157,
9/6/2020 23:00,49.5,,3.164,,331.4,,5.44,,2329,,25.83,,15.74,,3.044,
9/7/2020 0:00,49.3,,3.254,,321,,5.097,,38,,24.52,,15.45,,3.136,
9/7/2020 1:00,48.9,,2.885,,344.9,,4.999,,121,,25.36,,13.95,,2.8,
9/7/2020 2:00,41.8,,2.356,,305.8,,4.656,,245,,24.81,,19.13,,2.224,
9/7/2020 3:00,37,,1.951,,309.8,,3.97,,314,,23.94,,14.83,,1.886,
9/7/2020 4:00,41.9,,1.944,,352.6,,3.97,,437,,22.18,,15.18,,1.875,
9/7/2020 5:00,46.9,,2.922,,312,,4.999,,534,,21.79,,15.06,,2.821,
9/7/2020 6:00,43.2,,2.917,,326,,4.509,,620,,21.98,,11.25,,2.861,
9/7/2020 7:00,44.6,,3.166,,352.8,,4.558,,756,,22.78,,10.81,,3.109,
9/7/2020 8:00,38,,2.331,,329,,4.411,,800,,23.62,,16.61,,2.233,
9/7/2020 9:00,38,,3.045,,350.4,,5.244,,929,,26.02,,14.08,,2.953,
9/7/2020 10:00,34,,4.239,,357.8,,6.616,,1032,,28.54,,12.6,,4.137,
9/7/2020 11:00,31.8,,3.118,,345,,4.999,,1128,,30.8,,20.26,,2.923,
9/7/2020 12:00,19.5,,1.355,,0.7,,3.627,,1200,,32.7,,63.9,,0.512,
9/7/2020 13:00,47.5,,1.859,,183.7,,4.215,,1327,,32.22,,20.54,,1.739,
9/7/2020 14:00,49.4,,2.049,,181.8,,3.088,,1453,,30.34,,15.35,,1.975,
9/7/2020 15:00,74.1,,2.361,,179.9,,3.529,,1548,,29.13,,12.69,,2.303,
9/7/2020 16:00,71,,2.262,,180.4,,3.676,,1643,,28.71,,13.83,,2.196,
9/7/2020 17:00,79,,2.404,,210.9,,3.284,,1753,,27.93,,22.67,,2.216,
9/7/2020 18:00,93.4,,1.427,,209.5,,2.99,,1843,,27.38,,54.85,,0.773,
9/7/2020 19:00,75.8,,1.369,,293.1,,2.696,,1924,,25.02,,26.95,,1.217,
9/7/2020 20:00,74.7,,1.214,,316.8,,2.01,,2017,,24.18,,35.33,,0.983,
9/7/2020 21:00,115,,2.279,,325.3,,3.872,,2143,,23.29,,25.78,,2.048,
9/7/2020 22:00,230.5,,2.876,,333.2,,4.313,,2235,,23.33,,22.28,,2.658,
9/7/2020 23:00,225.2,,3.542,,332.2,,8.43,,2355,,25.02,,22.2,,3.276,
9/8/2020 0:00,114.2,,4.073,,336,,6.959,,59,,26.57,,12.34,,3.978,
9/8/2020 1:00,105.1,,4.543,,318.7,,7.5,,151,,26.07,,11.37,,4.454,
9/8/2020 2:00,164.5,,5.859,,325.1,,16.22,,257,,25.4,,19.26,,5.527,
9/8/2020 3:00,422,,9.74,,306.2,,18.67,,352,,26.23,,10.74,,9.56,
9/8/2020 4:00,1025.8,,11.8,,306.2,,20.38,,431,,25.02,,10.17,,11.61,
9/8/2020 5:00,1194.1,,12.08,,309.7,,21.32,,503,,23.62,,10.35,,11.89,
9/8/2020 6:00,1290,,11.19,,315.3,,18.87,,607,,22.6,,10.76,,11,
9/8/2020 7:00,1394.2,,11.54,,325.8,,19.89,,752,,22.25,,12.87,,11.24,
9/8/2020 8:00,1216.5,,11.65,,327.3,,19.6,,816,,22.14,,12.2,,11.39,
9/8/2020 9:00,961,,11.79,,326.9,,19.4,,912,,22.86,,11.39,,11.56,
9/8/2020 10:00,682.3,,11.33,,324.9,,18.47,,1025,,24.69,,12.12,,11.08,
9/8/2020 11:00,463.6,,10.88,,330.2,,17.54,,1122,,25.97,,12.37,,10.62,
9/8/2020 12:00,359.6,,9.07,,326.3,,16.07,,1202,,27.23,,13,,8.84,
9/8/2020 13:00,246.6,,9,,328.3,,14.99,,1313,,27.84,,13.2,,8.76,
9/8/2020 14:00,171.3,,8.63,,324.8,,13.77,,1410,,28.29,,11.65,,8.45,
9/8/2020 15:00,133.4,,8.53,,326.4,,14.11,,1512,,28.25,,11.14,,8.37,
9/8/2020 16:00,113.7,,7.02,,323.4,,12.15,,1620,,27.6,,11.26,,6.887,
9/8/2020 17:00,83.7,,6.572,,323.9,,11.71,,1700,,25.94,,10.57,,6.46,
9/8/2020 18:00,86.9,,5.736,,336,,11.12,,1805,,24.09,,13.59,,5.574,
9/8/2020 19:00,104.5,,6.655,,328.9,,11.91,,1907,,23.32,,11.84,,6.513,
9/8/2020 20:00,83.6,,6.644,,331,,11.32,,2036,,21.41,,11.09,,6.519,
9/8/2020 21:00,66,,6.546,,334.7,,11.86,,2110,,20.63,,12.36,,6.393,
9/8/2020 22:00,49.8,,6.237,,337,,10.39,,2238,,19.12,,12.34,,6.093,
9/8/2020 23:00,36.1,,5.668,,346,,9.36,,2315,,18.37,,11.78,,5.548,
9/9/2020 0:00,36.2,,4.704,,350.8,,9.85,,13,,16.63,,12.62,,4.59,
9/9/2020 1:00,31.8,,5.082,,348.9,,11.37,,155,,16.3,,14.01,,4.931,
9/9/2020 2:00,34.2,,5.363,,348.9,,8.67,,240,,15.85,,11.49,,5.255,
9/9/2020 3:00,30.7,,5.539,,356.5,,11.07,,308,,15.68,,14.04,,5.373,
9/9/2020 4:00,31.3,,4.249,,359.4,,7.69,,457,,14.46,,11.87,,4.158,
9/9/2020 5:00,32.2,,5.265,,355.2,,8.53,,504,,14.44,,11.97,,5.15,
9/9/2020 6:00,29.8,,5.166,,344.4,,8.58,,645,,15.84,,11.83,,5.056,
9/9/2020 7:00,28.1,,6.713,,350,,11.22,,740,,18.36,,13.92,,6.515,
9/9/2020 8:00,18.9,,7.78,,333.1,,12.74,,847,,20.84,,11.82,,7.61,
9/9/2020 9:00,,BA,8.04,,333.2,,12.74,,906,,22.43,,13.45,,7.82,
9/9/2020 10:00,55.7,,7.02,,340,,12.45,,1009,,24.08,,14.65,,6.793,
9/9/2020 11:00,17.2,,5.263,,343.5,,9.56,,1103,,25.44,,17.81,,5.008,
9/9/2020 12:00,14.7,,4.599,,345.8,,8.82,,1233,,26.75,,18.18,,4.368,
9/9/2020 13:00,15.8,,2.559,,18.8,,6.126,,1321,,28.2,,51.67,,1.518,
9/9/2020 14:00,17.2,,2.756,,114.6,,6.224,,1454,,28.73,,31.27,,2.345,
9/9/2020 15:00,13.5,,3.035,,160.3,,7.3,,1539,,29.11,,29.57,,2.63,
9/9/2020 16:00,17.5,,5.065,,170.7,,7.6,,1607,,28.11,,9.81,,4.991,
9/9/2020 17:00,18.6,,4.369,,171.9,,7.74,,1741,,26.07,,8.11,,4.325,
9/9/2020 18:00,21.4,,4.268,,149.4,,7.94,,1854,,23.72,,17.47,,4.069,
9/9/2020 19:00,20,,4.855,,129.3,,7.94,,1934,,23.1,,8.48,,4.802,
9/9/2020 20:00,19.8,,4.701,,141.2,,6.567,,2038,,22.05,,6.97,,4.666,
9/9/2020 21:00,17,,2.961,,176.1,,5.587,,2123,,19.97,,12.19,,2.893,
9/9/2020 22:00,17.4,,2.521,,172.5,,4.901,,2218,,18.48,,21.18,,2.349,
9/9/2020 23:00,14.2,,2.288,,179.2,,3.529,,2357,,17.69,,19.21,,2.159,
9/10/2020 0:00,12.5,,2.658,,200.9,,3.97,,31,,17.37,,13.6,,2.583,
9/10/2020 1:00,11.8,,2.499,,225.1,,3.872,,113,,16.69,,17.18,,2.386,
9/10/2020 2:00,12.4,,2.426,,321.8,,3.431,,217,,12.08,,15.03,,2.343,
9/10/2020 3:00,11.6,,1.983,,313.4,,3.431,,333,,10.96,,15.3,,1.912,
9/10/2020 4:00,12.9,,2.311,,328.5,,3.529,,402,,8.2,,8.26,,2.287,
9/10/2020 5:00,13.1,,2.509,,317.1,,3.578,,546,,8.44,,9.19,,2.477,
9/10/2020 6:00,12.4,,2.535,,329.1,,3.921,,625,,8.99,,13.37,,2.466,
9/10/2020 7:00,2,,2.116,,334.7,,3.48,,758,,11.35,,11.37,,2.074,
9/10/2020 8:00,20.4,,2.178,,330.9,,3.529,,842,,15.7,,14.15,,2.112,
9/10/2020 9:00,12.2,,1.329,,342.5,,2.941,,903,,20.27,,57,,0.671,
9/10/2020 10:00,12.6,,1.146,,125.8,,3.431,,1048,,22.65,,29.95,,0.989,
9/10/2020 11:00,11,,1.926,,137,,3.774,,1113,,23.82,,25.98,,1.728,
9/10/2020 12:00,11,,1.89,,168.8,,4.215,,1210,,24.96,,38.25,,1.468,
9/10/2020 13:00,11.2,,2.484,,165.4,,4.901,,1338,,25.76,,25.05,,2.247,
9/10/2020 14:00,14.2,,3.024,,170.1,,5.587,,1408,,26.07,,14.68,,2.924,
9/10/2020 15:00,25.5,,3.834,,167.6,,6.175,,1533,,25.84,,12.38,,3.745,
9/10/2020 16:00,26.4,,4.825,,169.1,,7.35,,1627,,24.89,,10.86,,4.738,
9/10/2020 17:00,22.4,,3.384,,165.5,,6.469,,1701,,22.56,,20.58,,3.165,
9/10/2020 18:00,22.1,,3.915,,152.7,,6.273,,1828,,21.27,,12.04,,3.828,
9/10/2020 19:00,23.3,,2.762,,180.6,,4.313,,1934,,19.69,,19.28,,2.605,
9/10/2020 20:00,23.2,,1.964,,200.7,,2.99,,2000,,19.25,,14.67,,1.9,
9/10/2020 21:00,20.6,,1.645,,178,,2.696,,2107,,18.74,,34.72,,1.343,
9/10/2020 22:00,19.1,,1.561,,263.2,,2.353,,2243,,15.61,,62.18,,0.641,
9/10/2020 23:00,18.6,,1.257,,327.3,,3.627,,2358,,13.57,,30.63,,1.077,
9/11/2020 0:00,18.7,,2.516,,321.3,,4.264,,27,,10.7,,17.36,,2.4,
9/11/2020 1:00,18.2,,2.074,,322.8,,3.627,,158,,11.26,,13.86,,2.013,
9/11/2020 2:00,19.1,,3.058,,312,,4.509,,219,,9.27,,8.13,,3.028,
9/11/2020 3:00,19.6,,2.881,,310.2,,3.823,,314,,9.36,,9.69,,2.84,
9/11/2020 4:00,20.9,,2.597,,307.8,,3.48,,431,,8.18,,5.38,,2.586,
9/11/2020 5:00,24.3,,1.695,,273.9,,2.696,,542,,8.45,,26.68,,1.511,
9/11/2020 6:00,27.8,,1.504,,302.3,,2.745,,649,,9.47,,15.21,,1.451,
9/11/2020 7:00,26.4,,2.038,,329.5,,3.48,,736,,11.5,,15.13,,1.967,
9/11/2020 8:00,29.7,,1.774,,332.2,,3.382,,800,,14.79,,21.23,,1.652,
9/11/2020 9:00,43.8,,1.638,,340.6,,4.411,,958,,18.68,,25.23,,1.479,
9/11/2020 10:00,60.7,,1.922,,1.9,,4.313,,1008,,21.95,,25.56,,1.731,
9/11/2020 11:00,33.1,,1.203,,117,,2.892,,1101,,24.69,,45.58,,0.822,
9/11/2020 12:00,29.9,,1.809,,159.9,,4.313,,1258,,26.05,,20.79,,1.69,
9/11/2020 13:00,19.9,,3.282,,160.2,,5.489,,1321,,26.72,,15.13,,3.167,
9/11/2020 14:00,14.9,,3.442,,160.6,,5.734,,1430,,27.22,,14.77,,3.328,
9/11/2020 15:00,15.2,,3.177,,166.6,,4.852,,1536,,27.55,,13.58,,3.088,
9/11/2020 16:00,22.4,,2.822,,158.6,,4.95,,1614,,27.04,,9.49,,2.783,
9/11/2020 17:00,39.3,,2.099,,194.7,,3.382,,1756,,25.55,,15.05,,2.026,
9/11/2020 18:00,29.7,,3.1,,162,,4.656,,1856,,23.11,,20.96,,2.892,
9/11/2020 19:00,21.2,,3.022,,160.6,,4.558,,1900,,21.07,,12.45,,2.95,
9/11/2020 20:00,22,,2.841,,184.9,,4.019,,2001,,20.01,,14.28,,2.752,
9/11/2020 21:00,17.9,,2.616,,207.6,,3.578,,2107,,20.86,,4.19,,2.609,
9/11/2020 22:00,14.8,,1.372,,323.3,,3.529,,2259,,16.29,,38.71,,1.059,
9/11/2020 23:00,13.1,,2.208,,323.2,,3.431,,2300,,14.5,,12.05,,2.159,
9/12/2020 0:00,14.1,,2.06,,320.5,,2.892,,43,,13.74,,20.84,,1.923,
9/12/2020 1:00,12.8,,3.18,,321.5,,4.754,,136,,10.48,,7.62,,3.152,
9/12/2020 2:00,12.7,,2.03,,314.7,,2.99,,200,,9.31,,6.19,,2.018,
9/12/2020 3:00,12.9,,2.323,,308,,3.578,,318,,9.86,,7.95,,2.301,
9/12/2020 4:00,15.1,,2.752,,303.8,,3.627,,423,,10.11,,7.36,,2.729,
9/12/2020 5:00,19.9,,2.276,,302.2,,3.627,,516,,9.76,,7.71,,2.255,
9/12/2020 6:00,18,,1.69,,311.8,,2.745,,646,,10.64,,8.96,,1.669,
9/12/2020 7:00,26.6,,1.658,,330.9,,3.088,,714,,14.72,,21.5,,1.542,
9/12/2020 8:00,32.8,,0.819,,223.8,,2.304,,807,,19.07,,70.5,,0.199,
9/12/2020 9:00,31.3,,1.146,,183.2,,3.48,,955,,22.78,,69.52,,0.302,
9/12/2020 10:00,22.2,,1.222,,340.5,,3.725,,1015,,26.33,,50.62,,0.745,
9/12/2020 11:00,16.3,,1.356,,166.6,,3.774,,1119,,28.29,,26.69,,1.209,
9/12/2020 12:00,17.3,,1.783,,138.1,,4.117,,1245,,29.67,,30.68,,1.527,
9/12/2020 13:00,12,,2.451,,155,,5.146,,1308,,31.09,,25.91,,2.2,
9/12/2020 14:00,10.4,,2.373,,164.2,,5.734,,1458,,32.07,,34.54,,1.941,
9/12/2020 15:00,8.7,,2.557,,185.7,,6.567,,1522,,32.39,,32.34,,2.149,
9/12/2020 16:00,11.2,,2.465,,182,,5.734,,1601,,32.08,,15.66,,2.373,
9/12/2020 17:00,19,,2.165,,177.1,,4.95,,1717,,30.29,,15.75,,2.083,
9/12/2020 18:00,63.3,,2.105,,151.5,,3.578,,1852,,26.82,,36.17,,1.685,
9/12/2020 19:00,22,,2.783,,184.5,,4.901,,1942,,25.31,,19.52,,2.621,
9/12/2020 20:00,14.6,,3.188,,208.8,,3.823,,2004,,24.93,,4.92,,3.176,
9/12/2020 21:00,14.2,,1.75,,197,,3.97,,2102,,22.76,,39.25,,1.339,
9/12/2020 22:00,12.6,,2.401,,153.7,,3.529,,2211,,20.97,,8.35,,2.376,
9/12/2020 23:00,11.6,,1.299,,323,,2.892,,2346,,18.06,,30.23,,1.118,
9/13/2020 0:00,12.7,,2.034,,316.8,,2.941,,55,,18.2,,8.79,,2.01,
9/13/2020 1:00,11,,2.175,,329.9,,3.235,,139,,13.92,,14.41,,2.106,
9/13/2020 2:00,9.5,,3.024,,316.5,,4.264,,247,,13.14,,7.45,,2.999,
9/13/2020 3:00,10.4,,2.55,,323.8,,5.195,,308,,11.81,,21.13,,2.376,
9/13/2020 4:00,10.9,,2.396,,318.4,,4.068,,402,,10.12,,15.14,,2.312,
9/13/2020 5:00,12.5,,2.576,,310.3,,3.333,,508,,11.42,,10.79,,2.531,
9/13/2020 6:00,13,,2.46,,316.6,,4.068,,654,,12.27,,10.45,,2.419,
9/13/2020 7:00,14,,2.371,,322.8,,3.921,,729,,16.3,,12.93,,2.31,
9/13/2020 8:00,15.1,,1.46,,358.2,,3.186,,851,,21.63,,31.49,,1.24,
9/13/2020 9:00,16.6,,0.746,,143.8,,1.814,,917,,25.75,,50.98,,0.451,
9/13/2020 10:00,13.2,,1.24,,148,,3.48,,1058,,27.89,,31.29,,1.055,
9/13/2020 11:00,11,,2.512,,151.9,,5.783,,1156,,29.85,,20.74,,2.347,
9/13/2020 12:00,10.7,,4.327,,163.7,,7.6,,1253,,31.75,,17.27,,4.13,
9/13/2020 13:00,12.8,,5.066,,156.7,,10.05,,1359,,32.45,,20.54,,4.741,
9/13/2020 14:00,14.7,,5.438,,164.9,,9.9,,1413,,32.82,,19.69,,5.117,
9/13/2020 15:00,14.9,,6.133,,163.3,,10.54,,1554,,32.74,,13.99,,5.95,
9/13/2020 16:00,15.9,,6.185,,174.5,,11.12,,1614,,32.1,,9.82,,6.094,
9/13/2020 17:00,16.1,,3.738,,176.5,,7.99,,1708,,29.45,,7.47,,3.706,
9/13/2020 18:00,17.6,,2.725,,129.4,,4.215,,1858,,26.47,,14.69,,2.635,
9/13/2020 19:00,16.2,,3.379,,157.4,,5.587,,1934,,26.22,,24.44,,3.072,
9/13/2020 20:00,14.4,,3.873,,200.4,,5.342,,2040,,24.77,,7.22,,3.842,
9/13/2020 21:00,14.6,,3.505,,188.1,,4.852,,2149,,23.7,,9,,3.461,
9/13/2020 22:00,16.9,,2.88,,204.1,,4.068,,2207,,23.1,,6.39,,2.862,
9/13/2020 23:00,15.3,,2.251,,146.3,,3.872,,2333,,21.38,,39.54,,1.715,
9/14/2020 0:00,19.5,,1.322,,182.2,,2.108,,30,,21.15,,14.99,,1.277,
9/14/2020 1:00,16.6,,2.296,,161.4,,3.774,,139,,21.06,,29.39,,1.994,
9/14/2020 2:00,18.2,,2.278,,192.9,,2.941,,222,,19.49,,20.93,,2.126,
9/14/2020 3:00,16.6,,1.22,,174.9,,2.451,,301,,18.52,,36.36,,0.974,
9/14/2020 4:00,20.1,,0.968,,203.4,,2.108,,410,,16.88,,41.62,,0.712,
9/14/2020 5:00,22.2,,1.944,,314.8,,4.019,,540,,13.2,,17.42,,1.854,
9/14/2020 6:00,24.2,,2.591,,322.2,,3.921,,600,,12.17,,8.03,,2.566,
9/14/2020 7:00,30.8,,2.928,,341.7,,5.195,,735,,16.65,,14.8,,2.83,
9/14/2020 8:00,29.4,,1.688,,350.1,,4.215,,803,,22.14,,22.08,,1.562,
9/14/2020 9:00,31.2,,1.71,,130,,5.048,,958,,26.56,,25.17,,1.545,
9/14/2020 10:00,27.7,,5.245,,142.9,,10.88,,1046,,29.17,,14.19,,5.084,
9/14/2020 11:00,27.5,,6.134,,134.3,,11.07,,1153,,30.18,,18.66,,5.809,
9/14/2020 12:00,33.8,,7.6,,167.5,,12.59,,1259,,30.95,,14.68,,7.35,
9/14/2020 13:00,35.2,,8.16,,169.5,,13.33,,1305,,31.32,,12.02,,7.98,
9/14/2020 14:00,30,,8.04,,169.6,,12.5,,1419,,31.13,,9.95,,7.92,
9/14/2020 15:00,30.9,,6.955,,172.4,,10.49,,1503,,30.96,,10.1,,6.847,
9/14/2020 16:00,29.5,,6.231,,172.9,,9.65,,1614,,30.55,,8.02,,6.17,
9/14/2020 17:00,28.1,,5.007,,167.9,,8.09,,1701,,29.35,,6.76,,4.972,
9/14/2020 18:00,54.7,,3.054,,139.3,,4.901,,1858,,26.24,,13.16,,2.974,
9/14/2020 19:00,27.3,,3.762,,133.9,,6.273,,1942,,25.34,,9.07,,3.715,
9/14/2020 20:00,30.6,,3.293,,199.3,,4.754,,2004,,24.1,,17.96,,3.131,
9/14/2020 21:00,30.1,,3.454,,204.6,,4.852,,2123,,24.49,,7.93,,3.421,
9/14/2020 22:00,34.9,,1.467,,182.7,,3.235,,2200,,22.74,,40.51,,1.1,
9/14/2020 23:00,31.5,,1.662,,249,,3.186,,2345,,21.15,,73.3,,0.302,
9/15/2020 0:00,30.3,,1.314,,307.2,,2.059,,15,,19.12,,15.35,,1.267,
9/15/2020 1:00,30.2,,1.049,,288.1,,1.863,,151,,19.12,,29.22,,0.912,
9/15/2020 2:00,28.8,,2.106,,320,,3.382,,247,,15.17,,23.38,,1.931,
9/15/2020 3:00,32.2,,2.469,,330.4,,4.264,,322,,13.88,,13.37,,2.402,
9/15/2020 4:00,39.9,,2.457,,313,,3.529,,413,,12.93,,8.45,,2.431,
9/15/2020 5:00,91.1,,2.776,,306.8,,3.774,,528,,12.44,,6.88,,2.756,
9/15/2020 6:00,122.6,,2.628,,307.8,,4.215,,655,,13.41,,8.41,,2.599,
9/15/2020 7:00,139.9,,2.483,,306.4,,4.264,,701,,16.35,,9.89,,2.446,